This is the latest recevied weather packets stored in our database for station/object AE6DC-5. If no packets are shown the sender has not sent any weather packets the latest 10 day(s).
| Time | Temp. | Humidity | Pressure | Rain* | Wind** | Luminosity | Snow |
|---|---|---|---|---|---|---|---|
| 1777620740 | 12.22° C | 91% | 1015.6 hPa | 0 mm | - | 0 W/m² | - |
| 1777617138 | 12.22° C | 92% | 1015.5 hPa | 0 mm | - | 0 W/m² | - |
| 1777616079 | 12.22° C | 91% | 1015.5 hPa | 0 mm | - | 0 W/m² | - |
| 1777615699 | 12.22° C | 91% | 1015.6 hPa | 0 mm | - | 0 W/m² | - |
| 1777613179 | 12.22° C | 91% | 1015.5 hPa | 0 mm | - | 0 W/m² | - |
| 1777609221 | 12.22° C | 91% | 1015.3 hPa | 0 mm | - | 0 W/m² | - |
| 1777608518 | 12.22° C | 91% | 1015.2 hPa | 0 mm | - | 0 W/m² | - |
| 1777606338 | 12.22° C | 90% | 1015.1 hPa | 0 mm | - | 0 W/m² | - |
| 1777604899 | 12.22° C | 90% | 1015.1 hPa | 0 mm | - | 1 W/m² | - |
| 1777603819 | 12.22° C | 90% | 1015 hPa | 0 mm | - | 3 W/m² | - |
| 1777603116 | 12.22° C | 89% | 1015.1 hPa | 0 mm | - | 11 W/m² | - |
| 1777602380 | 12.78° C | 89% | 1015 hPa | 0 mm | - | 13 W/m² | - |
| 1777601660 | 12.78° C | 89% | 1014.9 hPa | 0 mm | - | 21 W/m² | - |
| 1777601300 | 12.78° C | 89% | 1015 hPa | 0 mm | - | 27 W/m² | - |
| 1777599857 | 12.78° C | 89% | 1015.1 hPa | 0 mm | - | 42 W/m² | - |
| 1777599497 | 12.78° C | 89% | 1015.1 hPa | 0 mm | - | 50 W/m² | - |
| 1777596630 | 12.78° C | 88% | 1015.2 hPa | 0 mm | - | 125 W/m² | - |
| 1777596290 | 12.78° C | 88% | 1015.1 hPa | 0 mm | - | 149 W/m² | - |
| 1777595908 | 12.78° C | 88% | 1015.2 hPa | 0 mm | - | 144 W/m² | - |
| 1777593742 | 12.78° C | 88% | 1015 hPa | 0 mm | - | 218 W/m² | - |
| 1777592320 | 12.78° C | 88% | 1015 hPa | 0 mm | - | 314 W/m² | - |
| 1777591960 | 12.78° C | 88% | 1014.8 hPa | 0 mm | - | 488 W/m² | - |
| 1777584016 | 12.78° C | 88% | 1015.8 hPa | 0 mm | - | 465 W/m² | - |
| 1777580780 | 12.22° C | 88% | 1016 hPa | 0 mm | - | 452 W/m² | - |
| 1777575379 | 12.22° C | 88% | 1015.9 hPa | 0 mm | - | 617 W/m² | - |
* Rain latest hour (hover to see other rain measurements)
** Current wind speed in m/s (hover to see current wind gust speed)